User: anonymous   Login
Location: Ash Swamp
(41.5170°N, 74.6157°W)
Time: 07:43:54
(UTC+00:00)
Language:

Cosmos 1980 Rocket - Orbit

View from above orbital plane
View from above orbital plane
View from above satellite
View from above satellite

Ground track
Ground track

The orbit data is extracted from the following two-line orbital elements,

1 19650U 88102B   20266.06721326 -.00000125  00000-0 -39475-4 0  9995
2 19650  71.0022  26.7474 0013872 176.8953 183.2258 14.15795310644835
Epoch (UTC): 22 September 2020 01:36:47
Eccentricity: 0.0013872
inclination: 71.0022°
perigee height: 829 km
apogee height: 849 km
right ascension of ascending node: 26.7474°
argument of perigee: 176.8953°
revolutions per day: 14.15795310
mean anomaly at epoch: 183.2258°
orbit number at epoch: 64483

The dashed part of the orbit path shows where the satellite is in the earth's shadow,  

DLR